Regional Weather Roundup
Issued by NWS

Home | Current Version | Previous Version | Graphics & Text | Print | Product List | Glossary On
Versions: 1 2 3 4 5 6 7 8 9 10 11 12 13 14 15 16 17 18 19 20 21 22 23 24 25 26 27 28 29 30 31 32 33 34 35 36 37 38 39 40 41 42 43 44 45 46 47 48 49 50
000
ASUS43 KIND 301159
RWRIN

WEATHER ROUNDUP FOR INDIANA
NATIONAL WEATHER SERVICE INDIANAPOLIS IN
800 AM EDT THU MAR 30 2017

NOTE: "FAIR" INDICATES FEW OR NO CLOUDS BELOW 12,000 FEET WITH NO
SIGNIFICANT WEATHER AND/OR OBSTRUCTIONS TO VISIBILITY.

* - STATION DOES NOT REPORT WEATHER SUCH AS PRECIPITATION OR FOG.

+ - STATION NOT QUALITY CONTROLLED BY THE NATIONAL WEATHER SERVICE.
    USE DATA WITH CAUTION...ESPECIALLY DEWPOINT AND RELATIVE
    HUMIDITY OBSERVATIONS.

INZ001>003-010>013-019-020-301300-
NORTHWEST INDIANA

CITY           SKY/WX    TMP DP  RH WIND       PRES   REMARKS
GARY /AIRPORT/ LGT RAIN  43  41  93 E9G21     29.85F
KNOX *+        CLOUDY    41  28  60 E15G23    29.89R
MONTICELLO +   LGT RAIN  44  39  83 E9        29.85S
6HR MIN TEMP:  44; 6HR MAX TEMP:  46; 6HR PCP:  0.01;


$$

LMZ046-743>745-301300-
SOUTHERN LAKE MICHIGAN

STATION/POSITION TIME  TEMP    WIND        PRES    WAVE
                       AIR SEA DIR/SP/G            HT
                 (UTC) (F)     (DEG/KT/KT) (MB)    (FT)
BURNS HARBOR     1140   42     110/ 11/ 18 1011.5R
MICHIGAN CITY    1130   42     100/ 19/ 25   N/A

$$

INZ004-005-014>016-021>024-301300-
NORTH CENTRAL INDIANA

CITY           SKY/WX    TMP DP  RH WIND       PRES   REMARKS
ELKHART        LGT RAIN  39  37  93 E21G29    29.88F FOG
GOSHEN         CLOUDY    41  36  82 NE15      29.91R
6HR MIN TEMP:  41; 6HR MAX TEMP:  46; 6HR PCP:  0.31;

PERU/GRISSOM   LGT RAIN  43  43 100 NE10      29.85R
SOUTH BEND     LGT RAIN  40  50 100 E20G32    29.90R
6HR MIN TEMP:  39; 6HR MAX TEMP:  46; 6HR PCP:  0.57;


$$

INZ006>009-017-018-025>027-301300-
NORTHEAST INDIANA

CITY           SKY/WX    TMP DP  RH WIND       PRES   REMARKS
ANGOLA *+      CLOUDY    37  30  75 E14       29.94R
FORT WAYNE     LGT RAIN  42  38  85 E17       29.88R
6HR MIN TEMP:  42; 6HR MAX TEMP:  44; 6HR PCP:  0.13;

KENDALLVILLE + LGT RAIN  39  37  93 E14G23    29.92S

$$

INZ028-029-035-036-043>045-051>053-301300-
WEST CENTRAL INDIANA

CITY           SKY/WX    TMP DP  RH WIND       PRES   REMARKS
CRAWFORDSVL +  RAIN      49  49 100 E10       29.75F
6HR MIN TEMP:  49; 6HR MAX TEMP:  51; 6HR PCP:  0.09;

GREENCASTLE +  CLOUDY    50  46  87 E5        29.78F FOG
LAFAYETTE      RAIN      45  43  93 E12       29.83R FOG
6HR MIN TEMP:  45; 6HR MAX TEMP:  48; 6HR PCP:  0.13;

TERRE HAUTE    MOCLDY    53  50  89 E7        29.74R
6HR MIN TEMP:  53; 6HR MAX TEMP:  57; 6HR PCP:  0.16;


$$

INZ030>032-037>040-046>048-054>057-064-065-301300-
CENTRAL INDIANA

CITY           SKY/WX    TMP DP  RH WIND       PRES   REMARKS
COLUMBUS       CLEAR     50  48  93 E6        29.78F
GREENWOOD *+   CLOUDY    53  47  79 SE7       29.78F
6HR MIN TEMP:  52; 6HR MAX TEMP:  55;

INDIANAPOLIS   CLOUDY    53  46  77 E6        29.79R
6HR MIN TEMP:  52; 6HR MAX TEMP:  55;

-EAGLE CREEK   CLOUDY    54  45  71 SW3       29.80R
6HR MIN TEMP:  52; 6HR MAX TEMP:  55; 6HR PCP: TRACE;

KOKOMO +       TSTM      45  40  82 N10       29.87R
6HR MIN TEMP:  44; 6HR MAX TEMP:  45; 6HR PCP:  0.04;

SHELBYVILLE    PTCLDY    53  45  74 E9        29.78F
6HR MIN TEMP:  52; 6HR MAX TEMP:  55; 6HR PCP: TRACE;


$$

INZ033-034-041-042-049-050-058-059-301300-
EAST CENTRAL INDIANA

CITY           SKY/WX    TMP DP  RH WIND       PRES   REMARKS
MUNCIE         CLOUDY    49  40  71 SE12      29.81F
6HR MIN TEMP:  46; 6HR MAX TEMP:  49; 6HR PCP:  0.03;

RICHMOND +     PTCLDY    45  37  76 E13       29.84S

$$

INZ060-061-067>069-081>083-085>088-301300-
SOUTHWEST INDIANA

CITY           SKY/WX    TMP DP  RH WIND       PRES   REMARKS
EVANSVILLE     CLOUDY    62  54  74 SE5       29.72F
6HR MIN TEMP:  60; 6HR MAX TEMP:  62;

HUNTINGBURG *+ CLOUDY    62  54  74 SE6       29.74S
6HR MIN TEMP:  57; 6HR MAX TEMP:  62;


$$

INZ062-063-066-070>080-084-089>092-301300-
SOUTH CENTRAL AND SOUTHEAST INDIANA

CITY           SKY/WX    TMP DP  RH WIND       PRES   REMARKS
BLOOMINGTON    CLOUDY    55  46  71 SE6       29.76R
6HR MIN TEMP:  54; 6HR MAX TEMP:  55;

MADISON *+     CLOUDY    54  46  76 SE7       29.81F
SEYMOUR +      CLOUDY    55  48  76 SE7       29.78

$$





USA.gov is the U.S. government's official web portal to all federal, state and local government web resources and services.